Regional Weather Roundup
Issued by NWS Goodland, KS

Home | Current Version | Previous Version | Text Only | Print | Product List | Glossary On
Versions: 1 2 3 4 5 6 7 8 9 10 11 12 13 14 15 16 17 18 19 20 21 22 23 24 25 26 27 28 29 30 31 32 33 34 35 36 37 38 39 40 41 42 43 44 45 46 47 48 49 50
000
ASUS43 KGLD 271659
RWRGLD

GOODLAND FORECAST AREA HOURLY WEATHER ROUNDUP
NATIONAL WEATHER SERVICE GOODLAND KS
1000 AM MST MON FEB 27 2017

...OFFICIAL OBSERVATIONS...

CITY           SKY/WX    TMP DP  RH WIND       PRES   REMARKS
GOODLAND KS    CLOUDY    38  24  57 SW7       29.74F
HILL CITY KS   CLOUDY    46  32  58 S13       29.82F
IMPERIAL NEB   CLOUDY    35  24  64 S13       29.74F
MCCOOK NEB     CLOUDY    35  23  61 VRB3      29.81F
AKRON CO       SUNNY     45   6  20 S16       29.68F
BURLINGTON CO  CLOUDY    47  12  24 SW14      29.72F
LIMON CO       SUNNY     39  12  33 SE8       29.70F
$$

...UNOFFICIAL OBSERVATIONS...

CITY           SKY/WX    TMP DP  RH WIND       PRES   REMARKS
LENORA KS        N/A     43  32  65 S10         N/A
SHARON SPRINGS   N/A     41  26  55 SW8         N/A
TRENTON NEB      N/A     35  32  89 S6          N/A
KIT CARSON CO    N/A     36  17  45 CALM        N/A
YUMA CO        FAIR      43  14  31 SW10      29.70S
$$



USA.gov is the U.S. government's official web portal to all federal, state and local government web resources and services.